Time,TemperatureF,DewpointF,PressureIn,WindDirection,WindDirectionDegrees,WindSpeedMPH,WindSpeedGustMPH,Humidity,HourlyPrecipIn,Conditions,Clouds,dailyrainin,SoftwareType,DateUTC
2013-05-08 00:02:00,57.4,37.9,28.08,West,270,0.0,2.0,48,0.00,,---,0.00,VWS V14.01,2013-05-08 07:02:00,
2013-05-08 00:07:00,57.0,37.5,28.08,WNW,292,0.9,1.1,48,0.00,,---,0.00,VWS V14.01,2013-05-08 07:07:00,
2013-05-08 00:12:00,57.4,36.8,28.08,NE,45,4.0,9.6,46,0.00,,---,0.00,VWS V14.01,2013-05-08 07:12:00,
2013-05-08 00:17:00,57.9,37.8,28.11,West,270,0.0,0.0,47,0.00,,---,0.00,VWS V14.01,2013-05-08 07:17:00,
2013-05-08 00:22:00,58.1,38.0,28.11,SSW,202,0.0,1.1,47,0.00,,---,0.00,VWS V14.01,2013-05-08 07:22:00,
2013-05-08 00:27:00,57.6,37.5,28.11,East,90,0.0,0.0,47,0.00,,---,0.00,VWS V14.01,2013-05-08 07:27:00,
2013-05-08 00:32:00,57.2,37.7,28.11,West,270,0.0,2.0,48,0.00,,---,0.00,VWS V14.01,2013-05-08 07:32:00,
2013-05-08 00:37:00,56.8,37.9,28.11,WSW,248,0.0,0.0,49,0.00,,---,0.00,VWS V14.01,2013-05-08 07:37:00,
2013-05-08 00:42:00,56.5,37.6,28.11,WSW,248,0.0,0.0,49,0.00,,---,0.00,VWS V14.01,2013-05-08 07:42:00,
2013-05-08 00:47:00,56.1,37.2,28.11,WSW,248,0.0,0.0,49,0.00,,---,0.00,VWS V14.01,2013-05-08 07:47:00,
2013-05-08 00:52:00,55.6,37.2,28.11,WSW,248,0.0,0.9,50,0.00,,---,0.00,VWS V14.01,2013-05-08 07:52:00,
2013-05-08 00:57:00,55.6,37.2,28.11,SSW,202,0.0,1.6,50,0.00,,---,0.00,VWS V14.01,2013-05-08 07:57:00,
2013-05-08 01:02:00,55.2,37.9,28.11,SSW,202,1.1,2.7,52,0.00,,---,0.00,VWS V14.01,2013-05-08 08:02:00,
2013-05-08 01:07:00,54.9,37.6,28.11,NE,45,0.0,0.0,52,0.00,,---,0.00,VWS V14.01,2013-05-08 08:07:00,
2013-05-08 01:12:00,55.0,37.8,28.11,WSW,248,0.0,0.0,52,0.00,,---,0.00,VWS V14.01,2013-05-08 08:12:00,
2013-05-08 01:17:00,54.5,37.2,28.11,West,270,0.0,0.0,52,0.00,,---,0.00,VWS V14.01,2013-05-08 08:17:00,
2013-05-08 01:22:00,54.1,36.9,28.11,West,270,0.0,0.0,52,0.00,,---,0.00,VWS V14.01,2013-05-08 08:22:00,
2013-05-08 01:27:00,54.1,37.4,28.11,West,270,0.0,0.0,53,0.00,,---,0.00,VWS V14.01,2013-05-08 08:27:00,
2013-05-08 01:32:00,54.3,37.6,28.11,West,270,0.0,0.0,53,0.00,,---,0.00,VWS V14.01,2013-05-08 08:32:00,
2013-05-08 01:37:00,54.1,37.9,28.11,WSW,248,0.0,0.0,54,0.00,,---,0.00,VWS V14.01,2013-05-08 08:37:00,
2013-05-08 01:42:00,53.8,37.5,28.11,WSW,248,0.0,0.0,54,0.00,,---,0.00,VWS V14.01,2013-05-08 08:42:00,
2013-05-08 01:47:00,53.6,37.4,28.11,South,180,0.0,0.0,54,0.00,,---,0.00,VWS V14.01,2013-05-08 08:47:00,
2013-05-08 01:52:00,53.2,37.5,28.11,NNE,22,0.0,0.0,55,0.00,,---,0.00,VWS V14.01,2013-05-08 08:52:00,
2013-05-08 01:57:00,53.2,38.0,28.11,NNW,338,0.0,0.0,56,0.00,,---,0.00,VWS V14.01,2013-05-08 08:57:00,
2013-05-08 02:02:00,53.6,38.3,28.11,WSW,248,0.0,0.0,56,0.00,,---,0.00,VWS V14.01,2013-05-08 09:02:00,
2013-05-08 02:07:00,53.4,38.1,28.11,NNE,22,1.3,1.3,56,0.00,,---,0.00,VWS V14.01,2013-05-08 09:07:00,
2013-05-08 02:12:00,53.1,37.8,28.11,WNW,292,0.0,0.9,56,0.00,,---,0.00,VWS V14.01,2013-05-08 09:12:00,
2013-05-08 02:17:00,52.9,37.6,28.11,WNW,292,0.0,0.0,56,0.00,,---,0.00,VWS V14.01,2013-05-08 09:17:00,
2013-05-08 02:22:00,53.1,38.2,28.11,NNE,22,0.0,0.0,57,0.00,,---,0.00,VWS V14.01,2013-05-08 09:22:00,
2013-05-08 02:27:00,52.7,38.3,28.11,West,270,0.0,0.0,58,0.00,,---,0.00,VWS V14.01,2013-05-08 09:27:00,
2013-05-08 02:32:00,52.9,38.1,28.11,NNE,22,0.0,0.0,57,0.00,,---,0.00,VWS V14.01,2013-05-08 09:32:00,
2013-05-08 02:37:00,52.7,37.9,28.11,West,270,0.0,0.0,57,0.00,,---,0.00,VWS V14.01,2013-05-08 09:37:00,
2013-05-08 02:42:00,52.5,37.7,28.11,West,270,0.0,0.0,57,0.00,,---,0.00,VWS V14.01,2013-05-08 09:42:00,
2013-05-08 02:47:00,52.5,38.2,28.11,WSW,248,2.0,2.7,58,0.00,,---,0.00,VWS V14.01,2013-05-08 09:47:00,
2013-05-08 02:52:00,52.7,38.3,28.11,WSW,248,0.0,0.0,58,0.00,,---,0.00,VWS V14.01,2013-05-08 09:52:00,
2013-05-08 02:57:00,52.3,38.0,28.11,WNW,292,0.0,0.0,58,0.00,,---,0.00,VWS V14.01,2013-05-08 09:57:00,
2013-05-08 03:02:00,52.3,38.0,28.11,WSW,248,0.0,0.0,58,0.00,,---,0.00,VWS V14.01,2013-05-08 10:02:00,
2013-05-08 03:07:00,52.3,38.9,28.11,West,270,0.9,2.2,60,0.00,,---,0.00,VWS V14.01,2013-05-08 10:07:00,
2013-05-08 03:12:00,52.7,38.8,28.11,West,270,1.6,2.0,59,0.00,,---,0.00,VWS V14.01,2013-05-08 10:12:00,
2013-05-08 03:17:00,52.7,38.3,28.11,WSW,248,0.0,1.1,58,0.00,,---,0.00,VWS V14.01,2013-05-08 10:17:00,
2013-05-08 03:22:00,52.7,39.2,28.11,North,0,1.3,2.5,60,0.00,,---,0.00,VWS V14.01,2013-05-08 10:22:00,
2013-05-08 03:27:00,53.4,39.0,28.11,ENE,68,2.5,2.5,58,0.00,,---,0.00,VWS V14.01,2013-05-08 10:27:00,
2013-05-08 03:32:00,54.0,39.1,28.11,WSW,248,2.2,2.2,57,0.00,,---,0.00,VWS V14.01,2013-05-08 10:32:00,
2013-05-08 03:37:00,53.4,38.6,28.11,WSW,248,0.0,0.0,57,0.00,,---,0.00,VWS V14.01,2013-05-08 10:37:00,
2013-05-08 03:42:00,53.1,38.2,28.11,WSW,248,1.3,2.5,57,0.00,,---,0.00,VWS V14.01,2013-05-08 10:42:00,
2013-05-08 03:47:00,52.9,38.1,28.11,West,270,0.0,0.0,57,0.00,,---,0.00,VWS V14.01,2013-05-08 10:47:00,
2013-05-08 03:52:00,52.5,38.2,28.11,SW,225,0.0,1.1,58,0.00,,---,0.00,VWS V14.01,2013-05-08 10:52:00,
2013-05-08 03:57:00,52.5,38.2,28.11,WSW,248,0.0,0.0,58,0.00,,---,0.00,VWS V14.01,2013-05-08 10:57:00,
2013-05-08 04:02:00,52.3,38.0,28.14,WSW,248,2.5,2.5,58,0.00,,---,0.00,VWS V14.01,2013-05-08 11:02:00,
2013-05-08 04:07:00,52.3,38.5,28.14,NNE,22,2.5,2.5,59,0.00,,---,0.00,VWS V14.01,2013-05-08 11:07:00,
2013-05-08 04:12:00,52.2,38.3,28.14,WSW,248,0.0,0.0,59,0.00,,---,0.00,VWS V14.01,2013-05-08 11:12:00,
2013-05-08 04:17:00,52.2,38.3,28.11,WSW,248,0.0,0.0,59,0.00,,---,0.00,VWS V14.01,2013-05-08 11:17:00,
2013-05-08 04:22:00,52.5,38.6,28.11,WSW,248,2.2,2.5,59,0.00,,---,0.00,VWS V14.01,2013-05-08 11:22:00,
2013-05-08 04:28:00,52.3,38.5,28.11,WSW,248,3.1,3.1,59,0.00,,---,0.00,VWS V14.01,2013-05-08 11:28:00,
2013-05-08 04:33:00,52.5,38.6,28.11,WSW,248,0.0,0.0,59,0.00,,---,0.00,VWS V14.01,2013-05-08 11:33:00,
2013-05-08 04:38:00,52.5,38.6,28.11,WSW,248,0.0,0.0,59,0.00,,---,0.00,VWS V14.01,2013-05-08 11:38:00,
2013-05-08 04:43:00,52.3,38.5,28.11,SSW,202,0.0,0.0,59,0.00,,---,0.00,VWS V14.01,2013-05-08 11:43:00,
2013-05-08 04:48:00,52.2,38.3,28.11,West,270,0.0,0.0,59,0.00,,---,0.00,VWS V14.01,2013-05-08 11:48:00,
2013-05-08 04:53:00,52.0,38.1,28.11,WSW,248,0.0,0.0,59,0.00,,---,0.00,VWS V14.01,2013-05-08 11:53:00,
2013-05-08 04:58:00,52.0,38.1,28.11,WSW,248,0.0,0.0,59,0.00,,---,0.00,VWS V14.01,2013-05-08 11:58:00,
2013-05-08 05:03:00,51.6,38.6,28.11,NNW,338,1.6,1.6,61,0.00,,---,0.00,VWS V14.01,2013-05-08 12:03:00,
2013-05-08 05:08:00,51.4,38.5,28.11,WNW,292,0.0,0.0,61,0.00,,---,0.00,VWS V14.01,2013-05-08 12:08:00,
2013-05-08 05:13:00,51.3,38.7,28.14,WNW,292,1.6,2.0,62,0.00,,---,0.00,VWS V14.01,2013-05-08 12:13:00,
2013-05-08 05:18:00,51.1,38.1,28.14,WSW,248,0.0,0.9,61,0.00,,---,0.00,VWS V14.01,2013-05-08 12:18:00,
2013-05-08 05:23:00,50.5,37.6,28.14,West,270,0.0,0.0,61,0.00,,---,0.00,VWS V14.01,2013-05-08 12:23:00,
2013-05-08 05:28:00,50.7,38.2,28.14,WSW,248,1.3,1.3,62,0.00,,---,0.00,VWS V14.01,2013-05-08 12:28:00,
2013-05-08 05:33:00,50.5,38.0,28.14,WNW,292,0.0,0.0,62,0.00,,---,0.00,VWS V14.01,2013-05-08 12:33:00,
2013-05-08 05:38:00,50.2,38.1,28.14,WSW,248,0.0,0.0,63,0.00,,---,0.00,VWS V14.01,2013-05-08 12:38:00,
2013-05-08 05:43:00,50.2,38.5,28.14,WSW,248,0.0,0.0,64,0.00,,---,0.00,VWS V14.01,2013-05-08 12:43:00,
2013-05-08 05:48:00,50.0,38.3,28.14,WSW,248,0.0,0.0,64,0.00,,---,0.00,VWS V14.01,2013-05-08 12:48:00,
2013-05-08 05:54:00,49.6,38.0,28.14,West,270,0.0,0.0,64,0.00,,---,0.00,VWS V14.01,2013-05-08 12:54:00,
2013-05-08 05:59:00,49.3,37.6,28.14,West,270,0.0,0.0,64,0.00,,---,0.00,VWS V14.01,2013-05-08 12:59:00,
2013-05-08 06:04:00,49.3,38.4,28.14,WSW,248,0.0,0.0,66,0.00,,---,0.00,VWS V14.01,2013-05-08 13:04:00,
2013-05-08 06:09:00,49.3,38.4,28.14,WNW,292,0.0,0.0,66,0.00,,---,0.00,VWS V14.01,2013-05-08 13:09:00,
2013-05-08 06:14:00,49.3,38.4,28.14,NNE,22,0.0,0.0,66,0.00,,---,0.00,VWS V14.01,2013-05-08 13:14:00,
2013-05-08 06:19:00,49.1,38.6,28.14,WNW,292,0.0,0.0,67,0.00,,---,0.00,VWS V14.01,2013-05-08 13:19:00,
2013-05-08 06:24:00,49.1,39.0,28.14,WSW,248,0.0,0.0,68,0.00,,---,0.00,VWS V14.01,2013-05-08 13:24:00,
2013-05-08 06:29:00,49.1,39.4,28.14,NNW,338,0.0,0.0,69,0.00,,---,0.00,VWS V14.01,2013-05-08 13:29:00,
2013-05-08 06:34:00,49.3,39.9,28.14,NE,45,2.0,2.0,70,0.00,,---,0.00,VWS V14.01,2013-05-08 13:34:00,
2013-05-08 06:39:00,49.3,39.9,28.14,WSW,248,0.0,0.0,70,0.00,,---,0.00,VWS V14.01,2013-05-08 13:39:00,
2013-05-08 06:44:00,49.5,40.5,28.14,West,270,0.0,0.0,71,0.00,,---,0.00,VWS V14.01,2013-05-08 13:44:00,
2013-05-08 06:49:00,49.3,40.3,28.14,West,270,0.0,0.0,71,0.00,,---,0.00,VWS V14.01,2013-05-08 13:49:00,
2013-05-08 06:54:00,49.5,40.5,28.14,West,270,0.0,0.0,71,0.00,,---,0.00,VWS V14.01,2013-05-08 13:54:00,
2013-05-08 06:59:00,49.3,40.3,28.14,West,270,0.0,0.0,71,0.00,,---,0.00,VWS V14.01,2013-05-08 13:59:00,
2013-05-08 07:04:00,49.5,40.5,28.14,WSW,248,0.0,0.0,71,0.00,,---,0.00,VWS V14.01,2013-05-08 14:04:00,
2013-05-08 07:09:00,51.8,43.1,28.14,WNW,292,0.0,0.0,72,0.00,,---,0.00,VWS V14.01,2013-05-08 14:09:00,
2013-05-08 07:14:00,52.9,44.1,28.14,West,270,0.0,0.0,72,0.00,,---,0.00,VWS V14.01,2013-05-08 14:14:00,
2013-05-08 07:19:00,53.4,44.3,28.14,West,270,0.0,0.0,71,0.00,,---,0.00,VWS V14.01,2013-05-08 14:19:00,
2013-05-08 07:24:00,53.4,44.3,28.14,West,270,0.0,0.0,71,0.00,,---,0.00,VWS V14.01,2013-05-08 14:24:00,
2013-05-08 07:29:00,53.6,44.1,28.17,West,270,0.0,0.0,70,0.00,,---,0.00,VWS V14.01,2013-05-08 14:29:00,
2013-05-08 07:34:00,54.0,44.0,28.17,West,270,0.0,0.0,69,0.00,,---,0.00,VWS V14.01,2013-05-08 14:34:00,
2013-05-08 07:39:00,54.7,44.7,28.17,West,270,0.0,0.0,69,0.00,,---,0.00,VWS V14.01,2013-05-08 14:39:00,
2013-05-08 07:44:00,55.8,45.4,28.17,South,180,0.0,0.0,68,0.00,,---,0.00,VWS V14.01,2013-05-08 14:44:00,
2013-05-08 07:49:00,56.7,46.2,28.17,South,180,0.0,0.0,68,0.00,,---,0.00,VWS V14.01,2013-05-08 14:49:00,
2013-05-08 07:54:00,57.9,47.4,28.17,South,180,0.0,0.0,68,0.00,,---,0.00,VWS V14.01,2013-05-08 14:54:00,
2013-05-08 07:59:00,58.5,47.6,28.17,South,180,0.0,0.0,67,0.00,,---,0.00,VWS V14.01,2013-05-08 14:59:00,
2013-05-08 08:04:00,59.0,47.7,28.17,ENE,68,0.0,0.0,66,0.00,,---,0.00,VWS V14.01,2013-05-08 15:04:00,
2013-05-08 08:09:00,60.3,48.0,28.17,ENE,68,0.0,0.0,64,0.00,,---,0.00,VWS V14.01,2013-05-08 15:09:00,
2013-05-08 08:14:00,62.8,49.2,28.17,ENE,68,0.0,0.0,61,0.00,,---,0.00,VWS V14.01,2013-05-08 15:14:00,
2013-05-08 08:19:00,64.4,48.4,28.17,East,90,0.0,0.0,56,0.00,,---,0.00,VWS V14.01,2013-05-08 15:19:00,
2013-05-08 08:24:00,66.2,47.6,28.17,ENE,68,0.0,0.0,51,0.00,,---,0.00,VWS V14.01,2013-05-08 15:24:00,
2013-05-08 08:29:00,66.6,46.3,28.17,ENE,68,0.0,0.0,48,0.00,,---,0.00,VWS V14.01,2013-05-08 15:29:00,
2013-05-08 08:34:00,66.7,45.3,28.17,East,90,0.0,0.0,46,0.00,,---,0.00,VWS V14.01,2013-05-08 15:34:00,
2013-05-08 08:39:00,66.9,44.3,28.17,East,90,1.6,1.6,44,0.00,,---,0.00,VWS V14.01,2013-05-08 15:39:00,
2013-05-08 08:44:00,68.7,45.3,28.17,East,90,0.0,0.0,43,0.00,,---,0.00,VWS V14.01,2013-05-08 15:44:00,
2013-05-08 08:49:00,70.3,46.2,28.17,ENE,68,0.0,0.0,42,0.00,,---,0.00,VWS V14.01,2013-05-08 15:49:00,
2013-05-08 08:54:00,71.2,44.4,28.17,ESE,112,2.5,2.5,38,0.00,,---,0.00,VWS V14.01,2013-05-08 15:54:00,
2013-05-08 08:59:00,72.7,44.2,28.17,ENE,68,0.0,0.0,36,0.00,,---,0.00,VWS V14.01,2013-05-08 15:59:00,
2013-05-08 09:04:00,73.6,44.3,28.17,ESE,112,1.6,2.7,35,0.00,,---,0.00,VWS V14.01,2013-05-08 16:04:00,
2013-05-08 09:09:00,74.8,44.6,28.17,ESE,112,2.2,2.2,34,0.00,,---,0.00,VWS V14.01,2013-05-08 16:09:00,
2013-05-08 09:14:00,74.7,42.9,28.17,NE,45,2.0,2.9,32,0.00,,---,0.00,VWS V14.01,2013-05-08 16:14:00,
2013-05-08 09:19:00,75.6,43.7,28.17,East,90,0.0,0.0,32,0.00,,---,0.00,VWS V14.01,2013-05-08 16:19:00,
2013-05-08 09:24:00,75.6,43.7,28.17,SE,135,0.0,1.6,32,0.00,,---,0.00,VWS V14.01,2013-05-08 16:24:00,
2013-05-08 09:30:00,76.5,43.6,28.17,ENE,68,2.5,2.5,31,0.00,,---,0.00,VWS V14.01,2013-05-08 16:30:00,
2013-05-08 09:35:00,77.9,44.9,28.17,ENE,68,0.0,1.3,31,0.00,,---,0.00,VWS V14.01,2013-05-08 16:35:00,
2013-05-08 09:40:00,78.6,45.5,28.17,ESE,112,0.0,0.0,31,0.00,,---,0.00,VWS V14.01,2013-05-08 16:40:00,
2013-05-08 09:45:00,77.2,43.4,28.17,East,90,3.4,3.4,30,0.00,,---,0.00,VWS V14.01,2013-05-08 16:45:00,
2013-05-08 09:50:00,76.6,43.8,28.17,ENE,68,2.0,2.2,31,0.00,,---,0.00,VWS V14.01,2013-05-08 16:50:00,
2013-05-08 09:55:00,76.3,43.5,28.17,NNW,338,0.0,0.0,31,0.00,,---,0.00,VWS V14.01,2013-05-08 16:55:00,
2013-05-08 10:00:00,76.5,43.6,28.17,ENE,68,2.7,2.7,31,0.00,,---,0.00,VWS V14.01,2013-05-08 17:00:00,
2013-05-08 10:05:00,76.5,43.6,28.17,ESE,112,2.5,2.5,31,0.00,,---,0.00,VWS V14.01,2013-05-08 17:05:00,
2013-05-08 10:10:00,77.2,44.2,28.17,SE,135,2.7,2.7,31,0.00,,---,0.00,VWS V14.01,2013-05-08 17:10:00,
2013-05-08 10:15:00,76.6,43.8,28.17,NE,45,0.0,2.5,31,0.00,,---,0.00,VWS V14.01,2013-05-08 17:15:00,
2013-05-08 10:20:00,76.8,43.9,28.17,NE,45,2.5,2.9,31,0.00,,---,0.00,VWS V14.01,2013-05-08 17:20:00,
2013-05-08 10:25:00,77.4,44.4,28.17,SW,225,0.0,0.0,31,0.00,,---,0.00,VWS V14.01,2013-05-08 17:25:00,
2013-05-08 10:30:00,77.9,44.0,28.14,East,90,0.0,0.0,30,0.00,,---,0.00,VWS V14.01,2013-05-08 17:30:00,
2013-05-08 10:35:00,78.6,44.6,28.14,ENE,68,1.1,2.2,30,0.00,,---,0.00,VWS V14.01,2013-05-08 17:35:00,
2013-05-08 10:40:00,79.2,45.1,28.14,WSW,248,2.9,2.9,30,0.00,,---,0.00,VWS V14.01,2013-05-08 17:40:00,
2013-05-08 10:45:00,81.5,47.1,28.14,ESE,112,2.5,2.5,30,0.00,,---,0.00,VWS V14.01,2013-05-08 17:45:00,
2013-05-08 10:50:00,82.8,47.3,28.14,NE,45,0.0,0.0,29,0.00,,---,0.00,VWS V14.01,2013-05-08 17:50:00,
2013-05-08 10:55:00,84.7,47.1,28.14,ENE,68,1.3,2.5,27,0.00,,---,0.00,VWS V14.01,2013-05-08 17:55:00,
2013-05-08 11:00:00,85.5,41.1,28.14,ENE,68,4.3,4.3,21,0.00,,---,0.00,VWS V14.01,2013-05-08 18:00:00,
2013-05-08 11:05:00,86.0,40.3,28.14,NE,45,3.4,3.4,20,0.00,,---,0.00,VWS V14.01,2013-05-08 18:05:00,
2013-05-08 11:10:00,86.7,40.9,28.14,ENE,68,3.8,3.8,20,0.00,,---,0.00,VWS V14.01,2013-05-08 18:10:00,
2013-05-08 11:15:00,87.3,41.3,28.14,NNE,22,4.0,4.0,20,0.00,,---,0.00,VWS V14.01,2013-05-08 18:15:00,
2013-05-08 11:20:00,87.8,40.5,28.14,NE,45,2.9,3.6,19,0.00,,---,0.00,VWS V14.01,2013-05-08 18:20:00,
2013-05-08 11:25:00,88.2,40.8,28.14,NNE,22,1.1,2.2,19,0.00,,---,0.00,VWS V14.01,2013-05-08 18:25:00,
2013-05-08 11:30:00,89.2,41.6,28.14,ESE,112,3.4,3.8,19,0.00,,---,0.00,VWS V14.01,2013-05-08 18:30:00,
2013-05-08 11:35:00,88.5,39.7,28.14,NNE,22,0.9,1.3,18,0.00,,---,0.00,VWS V14.01,2013-05-08 18:35:00,
2013-05-08 11:40:00,88.9,39.9,28.14,ENE,68,3.4,6.5,18,0.00,,---,0.00,VWS V14.01,2013-05-08 18:40:00,
2013-05-08 11:45:00,89.4,40.4,28.14,NE,45,2.9,2.9,18,0.00,,---,0.00,VWS V14.01,2013-05-08 18:45:00,
2013-05-08 11:50:00,91.2,41.8,28.14,ESE,112,2.9,2.9,18,0.00,,---,0.00,VWS V14.01,2013-05-08 18:50:00,
2013-05-08 11:55:00,90.3,39.6,28.14,SE,135,4.0,4.0,17,0.00,,---,0.00,VWS V14.01,2013-05-08 18:55:00,
2013-05-08 12:00:00,90.3,39.6,28.14,ESE,112,3.8,3.8,17,0.00,,---,0.00,VWS V14.01,2013-05-08 19:00:00,
2013-05-08 12:05:00,90.9,40.1,28.14,ENE,68,2.2,3.6,17,0.00,,---,0.00,VWS V14.01,2013-05-08 19:05:00,
2013-05-08 12:10:00,92.1,41.1,28.14,NNE,22,2.2,2.5,17,0.00,,---,0.00,VWS V14.01,2013-05-08 19:10:00,
2013-05-08 12:15:00,92.3,41.2,28.14,NE,45,3.1,3.4,17,0.00,,---,0.00,VWS V14.01,2013-05-08 19:15:00,
2013-05-08 12:20:00,92.7,41.5,28.14,NNE,22,3.6,4.7,17,0.00,,---,0.00,VWS V14.01,2013-05-08 19:20:00,
2013-05-08 12:25:00,92.5,41.4,28.14,NE,45,2.9,3.4,17,0.00,,---,0.00,VWS V14.01,2013-05-08 19:25:00,
2013-05-08 12:30:00,91.4,35.6,28.14,NNE,22,1.3,5.4,14,0.00,,---,0.00,VWS V14.01,2013-05-08 19:30:00,
2013-05-08 12:36:00,91.2,40.4,28.14,ENE,68,2.9,3.6,17,0.00,,---,0.00,VWS V14.01,2013-05-08 19:36:00,
2013-05-08 12:41:00,91.4,40.5,28.14,East,90,1.6,2.7,17,0.00,,---,0.00,VWS V14.01,2013-05-08 19:41:00,
2013-05-08 12:46:00,91.0,40.2,28.14,East,90,3.1,3.6,17,0.00,,---,0.00,VWS V14.01,2013-05-08 19:46:00,
2013-05-08 12:51:00,90.1,39.5,28.14,NNW,338,2.7,4.3,17,0.00,,---,0.00,VWS V14.01,2013-05-08 19:51:00,
2013-05-08 12:56:00,88.9,39.9,28.14,ENE,68,3.8,5.4,18,0.00,,---,0.00,VWS V14.01,2013-05-08 19:56:00,
2013-05-08 13:01:00,88.7,39.8,28.14,WSW,248,4.3,4.3,18,0.00,,---,0.00,VWS V14.01,2013-05-08 20:01:00,
2013-05-08 13:06:00,88.5,39.7,28.14,NE,45,3.6,3.6,18,0.00,,---,0.00,VWS V14.01,2013-05-08 20:06:00,
2013-05-08 13:11:00,87.8,39.1,28.14,East,90,5.4,6.3,18,0.00,,---,0.00,VWS V14.01,2013-05-08 20:11:00,
2013-05-08 13:16:00,87.4,40.2,28.11,ENE,68,5.8,5.8,19,0.00,,---,0.00,VWS V14.01,2013-05-08 20:16:00,
2013-05-08 13:21:00,88.0,39.2,28.11,NNW,338,2.0,2.9,18,0.00,,---,0.00,VWS V14.01,2013-05-08 20:21:00,
2013-05-08 13:26:00,88.5,39.7,28.11,NE,45,3.8,5.6,18,0.00,,---,0.00,VWS V14.01,2013-05-08 20:26:00,
2013-05-08 13:31:00,89.2,40.2,28.11,ENE,68,3.6,3.6,18,0.00,,---,0.00,VWS V14.01,2013-05-08 20:31:00,
2013-05-08 13:36:00,90.0,40.8,28.11,NNE,22,3.1,3.8,18,0.00,,---,0.00,VWS V14.01,2013-05-08 20:36:00,
2013-05-08 13:41:00,90.7,41.4,28.11,East,90,4.0,4.0,18,0.00,,---,0.00,VWS V14.01,2013-05-08 20:41:00,
2013-05-08 13:46:00,91.2,41.8,28.11,ENE,68,6.5,6.5,18,0.00,,---,0.00,VWS V14.01,2013-05-08 20:46:00,
2013-05-08 13:51:00,91.0,41.7,28.11,ENE,68,2.9,2.9,18,0.00,,---,0.00,VWS V14.01,2013-05-08 20:51:00,
2013-05-08 13:56:00,91.2,41.8,28.11,ENE,68,2.5,2.5,18,0.00,,---,0.00,VWS V14.01,2013-05-08 20:56:00,
2013-05-08 14:01:00,90.7,39.9,28.11,South,180,1.3,1.6,17,0.00,,---,0.00,VWS V14.01,2013-05-08 21:01:00,
2013-05-08 14:06:00,90.3,41.1,28.11,NE,45,3.1,3.4,18,0.00,,---,0.00,VWS V14.01,2013-05-08 21:06:00,
2013-05-08 14:11:00,90.1,39.5,28.11,East,90,0.9,0.9,17,0.00,,---,0.00,VWS V14.01,2013-05-08 21:11:00,
2013-05-08 14:16:00,90.1,41.0,28.11,SE,135,0.0,0.0,18,0.00,,---,0.00,VWS V14.01,2013-05-08 21:16:00,
2013-05-08 14:21:00,90.0,39.3,28.11,NE,45,3.6,3.6,17,0.00,,---,0.00,VWS V14.01,2013-05-08 21:21:00,
2013-05-08 14:26:00,90.5,39.8,28.11,SW,225,0.0,2.0,17,0.00,,---,0.00,VWS V14.01,2013-05-08 21:26:00,
2013-05-08 14:31:00,91.6,40.7,28.11,East,90,1.6,2.7,17,0.00,,---,0.00,VWS V14.01,2013-05-08 21:31:00,
2013-05-08 14:36:00,92.3,36.3,28.11,SE,135,4.3,4.3,14,0.00,,---,0.00,VWS V14.01,2013-05-08 21:36:00,
2013-05-08 14:41:00,94.5,38.0,28.11,ENE,68,0.0,1.1,14,0.00,,---,0.00,VWS V14.01,2013-05-08 21:41:00,
2013-05-08 14:46:00,96.1,39.2,28.11,ENE,68,1.1,1.3,14,0.00,,---,0.00,VWS V14.01,2013-05-08 21:46:00,
2013-05-08 14:51:00,96.6,39.7,28.11,SSE,158,2.5,2.7,14,0.00,,---,0.00,VWS V14.01,2013-05-08 21:51:00,
2013-05-08 14:56:00,97.5,34.2,28.11,ESE,112,2.2,2.9,11,0.00,,---,0.00,VWS V14.01,2013-05-08 21:56:00,
2013-05-08 15:01:00,97.0,33.8,28.11,East,90,0.9,3.6,11,0.00,,---,0.00,VWS V14.01,2013-05-08 22:01:00,
2013-05-08 15:06:00,98.4,34.9,28.11,SSE,158,3.1,3.6,11,0.00,,---,0.00,VWS V14.01,2013-05-08 22:06:00,
2013-05-08 15:11:00,98.6,32.7,28.11,NE,45,3.6,3.6,10,0.00,,---,0.00,VWS V14.01,2013-05-08 22:11:00,
2013-05-08 15:16:00,98.6,27.2,28.11,NNE,22,2.7,3.6,8,0.00,,---,0.00,VWS V14.01,2013-05-08 22:16:00,
2013-05-08 15:21:00,98.2,27.0,28.11,ESE,112,2.5,2.9,8,0.00,,---,0.00,VWS V14.01,2013-05-08 22:21:00,
2013-05-08 15:26:00,97.9,26.7,28.11,South,180,2.5,2.9,8,0.00,,---,0.00,VWS V14.01,2013-05-08 22:26:00,
2013-05-08 15:31:00,99.3,33.2,28.11,SW,225,0.0,2.0,10,0.00,,---,0.00,VWS V14.01,2013-05-08 22:31:00,
2013-05-08 15:36:00,99.3,27.7,28.11,NE,45,2.0,3.6,8,0.00,,---,0.00,VWS V14.01,2013-05-08 22:36:00,
2013-05-08 15:41:00,99.0,33.0,28.11,SW,225,0.9,2.9,10,0.00,,---,0.00,VWS V14.01,2013-05-08 22:41:00,
2013-05-08 15:46:00,96.4,28.5,28.11,SE,135,2.7,3.1,9,0.00,,---,0.00,VWS V14.01,2013-05-08 22:46:00,
2013-05-08 15:51:00,96.8,33.7,28.11,West,270,0.0,0.0,11,0.00,,---,0.00,VWS V14.01,2013-05-08 22:51:00,
2013-05-08 15:56:00,94.8,27.3,28.11,NNE,22,4.3,5.4,9,0.00,,---,0.00,VWS V14.01,2013-05-08 22:56:00,
2013-05-08 16:01:00,92.3,25.4,28.11,ENE,68,4.0,8.5,9,0.00,,---,0.00,VWS V14.01,2013-05-08 23:01:00,
2013-05-08 16:06:00,91.8,25.0,28.11,ENE,68,4.3,6.3,9,0.00,,---,0.00,VWS V14.01,2013-05-08 23:06:00,
2013-05-08 16:11:00,91.0,27.0,28.11,ENE,68,2.0,2.0,10,0.00,,---,0.00,VWS V14.01,2013-05-08 23:11:00,
2013-05-08 16:16:00,90.7,26.7,28.11,East,90,0.0,1.6,10,0.00,,---,0.00,VWS V14.01,2013-05-08 23:16:00,
2013-05-08 16:21:00,90.7,31.2,28.11,NNE,22,2.7,2.7,12,0.00,,---,0.00,VWS V14.01,2013-05-08 23:21:00,
2013-05-08 16:26:00,90.3,26.4,28.11,North,0,2.7,6.0,10,0.00,,---,0.00,VWS V14.01,2013-05-08 23:26:00,
2013-05-08 16:31:00,89.6,35.9,28.11,West,270,0.9,1.6,15,0.00,,---,0.00,VWS V14.01,2013-05-08 23:31:00,
2013-05-08 16:36:00,88.7,39.8,28.11,West,270,0.0,0.0,18,0.00,,---,0.00,VWS V14.01,2013-05-08 23:36:00,
2013-05-08 16:41:00,87.3,35.6,28.11,West,270,1.6,1.6,16,0.00,,---,0.00,VWS V14.01,2013-05-08 23:41:00,
2013-05-08 16:46:00,84.9,38.1,28.11,WSW,248,0.0,0.0,19,0.00,,---,0.00,VWS V14.01,2013-05-08 23:46:00,
2013-05-08 16:51:00,82.9,37.8,28.11,West,270,0.0,1.6,20,0.00,,---,0.00,VWS V14.01,2013-05-08 23:51:00,
2013-05-08 16:56:00,82.0,37.0,28.11,NW,315,1.6,2.5,20,0.00,,---,0.00,VWS V14.01,2013-05-08 23:56:00,
2013-05-08 17:01:00,81.1,37.5,28.11,WSW,248,0.0,0.0,21,0.00,,---,0.00,VWS V14.01,2013-05-09 00:01:00,
2013-05-08 17:06:00,79.0,39.2,28.11,WSW,248,0.0,0.0,24,0.00,,---,0.00,VWS V14.01,2013-05-09 00:06:00,
2013-05-08 17:11:00,77.4,39.8,28.11,WSW,248,0.0,0.0,26,0.00,,---,0.00,VWS V14.01,2013-05-09 00:11:00,
2013-05-08 17:16:00,76.3,40.8,28.11,West,270,0.0,0.0,28,0.00,,---,0.00,VWS V14.01,2013-05-09 00:16:00,
2013-05-08 17:21:00,75.6,41.1,28.11,SW,225,0.0,0.0,29,0.00,,---,0.00,VWS V14.01,2013-05-09 00:21:00,
2013-05-08 17:26:00,75.0,42.4,28.11,SW,225,0.0,0.0,31,0.00,,---,0.00,VWS V14.01,2013-05-09 00:26:00,
2013-05-08 17:31:00,74.3,41.7,28.11,WSW,248,0.0,0.0,31,0.00,,---,0.00,VWS V14.01,2013-05-09 00:31:00,
2013-05-08 17:36:00,73.8,41.3,28.11,WSW,248,0.0,0.0,31,0.00,,---,0.00,VWS V14.01,2013-05-09 00:36:00,
2013-05-08 17:41:00,73.4,41.0,28.11,WSW,248,0.0,0.0,31,0.00,,---,0.00,VWS V14.01,2013-05-09 00:41:00,
2013-05-08 17:46:00,72.7,41.2,28.11,WSW,248,0.0,0.0,32,0.00,,---,0.00,VWS V14.01,2013-05-09 00:46:00,
2013-05-08 17:51:00,72.5,41.0,28.11,SW,225,1.1,1.1,32,0.00,,---,0.00,VWS V14.01,2013-05-09 00:51:00,
2013-05-08 17:56:00,72.0,40.5,28.11,WSW,248,0.0,0.0,32,0.00,,---,0.00,VWS V14.01,2013-05-09 00:56:00,
2013-05-08 18:01:00,71.2,39.9,28.11,WSW,248,0.0,0.0,32,0.00,,---,0.00,VWS V14.01,2013-05-09 01:01:00,
2013-05-08 18:06:00,71.2,40.7,28.11,WNW,292,0.0,0.0,33,0.00,,---,0.00,VWS V14.01,2013-05-09 01:06:00,
2013-05-08 18:11:00,70.7,40.2,28.11,SSW,202,2.5,2.5,33,0.00,,---,0.00,VWS V14.01,2013-05-09 01:11:00,
2013-05-08 18:16:00,70.5,40.1,28.11,WSW,248,1.6,1.6,33,0.00,,---,0.00,VWS V14.01,2013-05-09 01:16:00,
2013-05-08 18:21:00,70.3,39.9,28.11,WSW,248,0.0,0.0,33,0.00,,---,0.00,VWS V14.01,2013-05-09 01:21:00,
2013-05-08 18:26:00,70.3,40.7,28.11,NNW,338,0.0,0.0,34,0.00,,---,0.00,VWS V14.01,2013-05-09 01:26:00,
2013-05-08 18:31:00,70.2,39.7,28.11,WSW,248,0.0,0.0,33,0.00,,---,0.00,VWS V14.01,2013-05-09 01:31:00,
2013-05-08 18:36:00,70.2,39.7,28.11,WSW,248,0.0,0.0,33,0.00,,---,0.00,VWS V14.01,2013-05-09 01:36:00,
2013-05-08 18:41:00,69.6,40.0,28.11,East,90,0.0,0.0,34,0.00,,---,0.00,VWS V14.01,2013-05-09 01:41:00,
2013-05-08 18:46:00,69.6,40.0,28.11,ENE,68,0.0,0.0,34,0.00,,---,0.00,VWS V14.01,2013-05-09 01:46:00,
2013-05-08 18:51:00,69.3,39.7,28.11,SW,225,0.0,0.0,34,0.00,,---,0.00,VWS V14.01,2013-05-09 01:51:00,
2013-05-08 18:56:00,68.9,40.2,28.11,SW,225,2.2,2.5,35,0.00,,---,0.00,VWS V14.01,2013-05-09 01:56:00,
2013-05-08 19:01:00,68.4,39.7,28.11,WSW,248,0.0,0.0,35,0.00,,---,0.00,VWS V14.01,2013-05-09 02:01:00,
2013-05-08 19:06:00,68.0,40.1,28.11,WNW,292,0.0,0.0,36,0.00,,---,0.00,VWS V14.01,2013-05-09 02:06:00,
2013-05-08 19:11:00,67.5,39.6,28.11,West,270,0.0,0.0,36,0.00,,---,0.00,VWS V14.01,2013-05-09 02:11:00,
2013-05-08 19:16:00,66.9,39.1,28.11,NE,45,0.0,0.0,36,0.00,,---,0.00,VWS V14.01,2013-05-09 02:16:00,
2013-05-08 19:21:00,66.6,39.5,28.11,North,0,0.0,0.0,37,0.00,,---,0.00,VWS V14.01,2013-05-09 02:21:00,
2013-05-08 19:26:00,66.0,40.4,28.11,NW,315,0.0,0.0,39,0.00,,---,0.00,VWS V14.01,2013-05-09 02:26:00,
2013-05-08 19:31:00,65.8,39.5,28.11,NW,315,0.0,0.0,38,0.00,,---,0.00,VWS V14.01,2013-05-09 02:31:00,
2013-05-08 19:36:00,65.5,39.9,28.11,NNE,22,0.0,0.0,39,0.00,,---,0.00,VWS V14.01,2013-05-09 02:36:00,
2013-05-08 19:41:00,65.1,40.2,28.11,WNW,292,0.0,0.0,40,0.00,,---,0.00,VWS V14.01,2013-05-09 02:41:00,
2013-05-08 19:46:00,64.6,39.7,28.14,WNW,292,0.0,0.0,40,0.00,,---,0.00,VWS V14.01,2013-05-09 02:46:00,
2013-05-08 19:51:00,64.2,39.4,28.14,WNW,292,0.0,0.0,40,0.00,,---,0.00,VWS V14.01,2013-05-09 02:51:00,
2013-05-08 19:56:00,64.0,39.9,28.14,West,270,0.0,0.0,41,0.00,,---,0.00,VWS V14.01,2013-05-09 02:56:00,
2013-05-08 20:01:00,63.9,39.1,28.14,WNW,292,0.0,0.0,40,0.00,,---,0.00,VWS V14.01,2013-05-09 03:01:00,
2013-05-08 20:06:00,63.9,39.1,28.14,WNW,292,0.0,0.0,40,0.00,,---,0.00,VWS V14.01,2013-05-09 03:06:00,
2013-05-08 20:12:00,63.9,39.1,28.14,WNW,292,0.0,0.0,40,0.00,,---,0.00,VWS V14.01,2013-05-09 03:12:00,
2013-05-08 20:17:00,64.0,39.9,28.14,West,270,0.0,0.0,41,0.00,,---,0.00,VWS V14.01,2013-05-09 03:17:00,
2013-05-08 20:22:00,64.2,39.4,28.14,WNW,292,1.1,1.6,40,0.00,,---,0.00,VWS V14.01,2013-05-09 03:22:00,
2013-05-08 20:27:00,63.9,39.1,28.14,West,270,0.0,0.0,40,0.00,,---,0.00,VWS V14.01,2013-05-09 03:27:00,
2013-05-08 20:32:00,63.5,38.8,28.14,West,270,0.9,2.0,40,0.00,,---,0.00,VWS V14.01,2013-05-09 03:32:00,
2013-05-08 20:37:00,63.1,38.5,28.14,WNW,292,0.0,0.0,40,0.00,,---,0.00,VWS V14.01,2013-05-09 03:37:00,
2013-05-08 20:42:00,63.1,39.1,28.14,WSW,248,1.3,2.5,41,0.00,,---,0.00,VWS V14.01,2013-05-09 03:42:00,
2013-05-08 20:47:00,63.1,38.5,28.14,NW,315,0.0,0.9,40,0.00,,---,0.00,VWS V14.01,2013-05-09 03:47:00,
2013-05-08 20:52:00,63.0,38.3,28.14,WNW,292,0.0,2.0,40,0.00,,---,0.00,VWS V14.01,2013-05-09 03:52:00,
2013-05-08 20:57:00,62.6,37.3,28.14,WNW,292,0.0,0.0,39,0.00,,---,0.00,VWS V14.01,2013-05-09 03:57:00,
2013-05-08 21:01:00,62.2,37.0,28.17,WNW,292,0.0,0.0,39,0.00,,---,0.00,VWS V14.01,2013-05-09 04:01:00,
2013-05-08 21:02:00,62.2,37.0,28.17,West,270,0.0,0.0,39,0.00,,---,0.00,VWS V14.01,2013-05-09 04:02:00,
2013-05-08 21:07:00,62.2,37.0,28.17,ENE,68,1.6,1.6,39,0.00,,---,0.00,VWS V14.01,2013-05-09 04:07:00,
2013-05-08 21:12:00,62.2,37.0,28.17,NNW,338,0.0,0.0,39,0.00,,---,0.00,VWS V14.01,2013-05-09 04:12:00,
2013-05-08 21:17:00,62.2,37.0,28.17,NE,45,1.1,1.1,39,0.00,,---,0.00,VWS V14.01,2013-05-09 04:17:00,
2013-05-08 21:22:00,63.1,36.5,28.17,NNE,22,2.5,2.5,37,0.00,,---,0.00,VWS V14.01,2013-05-09 04:22:00,
2013-05-08 21:27:00,63.9,36.4,28.17,NE,45,0.0,3.1,36,0.00,,---,0.00,VWS V14.01,2013-05-09 04:27:00,
2013-05-08 21:32:00,63.7,36.2,28.17,NW,315,3.6,4.3,36,0.00,,---,0.00,VWS V14.01,2013-05-09 04:32:00,
2013-05-08 21:37:00,63.1,35.8,28.17,NNE,22,0.9,0.9,36,0.00,,---,0.00,VWS V14.01,2013-05-09 04:37:00,
2013-05-08 21:42:00,64.0,35.9,28.17,North,0,0.0,3.4,35,0.00,,---,0.00,VWS V14.01,2013-05-09 04:42:00,
2013-05-08 21:47:00,64.4,35.5,28.17,NE,45,3.1,4.9,34,0.00,,---,0.00,VWS V14.01,2013-05-09 04:47:00,
2013-05-08 21:52:00,65.1,36.1,28.17,NNW,338,0.0,1.6,34,0.00,,---,0.00,VWS V14.01,2013-05-09 04:52:00,
2013-05-08 21:57:00,65.1,35.3,28.17,NNE,22,0.9,2.0,33,0.00,,---,0.00,VWS V14.01,2013-05-09 04:57:00,
2013-05-08 22:02:00,64.8,35.0,28.17,NNE,22,3.4,3.4,33,0.00,,---,0.00,VWS V14.01,2013-05-09 05:02:00,
2013-05-08 22:07:00,64.6,34.8,28.17,ENE,68,2.2,2.2,33,0.00,,---,0.00,VWS V14.01,2013-05-09 05:07:00,
2013-05-08 22:12:00,64.4,34.7,28.17,NE,45,2.0,2.0,33,0.00,,---,0.00,VWS V14.01,2013-05-09 05:12:00,
2013-05-08 22:17:00,63.9,35.0,28.20,NNE,22,0.0,1.1,34,0.00,,---,0.00,VWS V14.01,2013-05-09 05:17:00,
2013-05-08 22:22:00,63.1,34.3,28.20,North,0,2.7,2.7,34,0.00,,---,0.00,VWS V14.01,2013-05-09 05:22:00,
2013-05-08 22:27:00,63.3,34.5,28.20,NE,45,4.3,4.3,34,0.00,,---,0.00,VWS V14.01,2013-05-09 05:27:00,
2013-05-08 22:32:00,63.1,34.3,28.20,NNE,22,2.9,3.4,34,0.00,,---,0.00,VWS V14.01,2013-05-09 05:32:00,
2013-05-08 22:37:00,63.0,34.2,28.20,ENE,68,2.7,2.7,34,0.00,,---,0.00,VWS V14.01,2013-05-09 05:37:00,
2013-05-08 22:42:00,63.0,34.2,28.20,ENE,68,3.6,3.6,34,0.00,,---,0.00,VWS V14.01,2013-05-09 05:42:00,
2013-05-08 22:47:00,62.8,34.0,28.20,South,180,3.6,5.8,34,0.00,,---,0.00,VWS V14.01,2013-05-09 05:47:00,
2013-05-08 22:52:00,62.2,33.5,28.20,NNW,338,3.6,3.6,34,0.00,,---,0.00,VWS V14.01,2013-05-09 05:52:00,
2013-05-08 22:57:00,60.8,33.0,28.20,SSW,202,0.0,0.0,35,0.00,,---,0.00,VWS V14.01,2013-05-09 05:57:00,
2013-05-08 23:02:00,60.4,33.4,28.20,West,270,0.0,2.5,36,0.00,,---,0.00,VWS V14.01,2013-05-09 06:02:00,
2013-05-08 23:07:00,60.6,32.8,28.20,SE,135,0.9,2.2,35,0.00,,---,0.00,VWS V14.01,2013-05-09 06:07:00,
2013-05-08 23:12:00,61.0,33.2,28.20,ENE,68,4.9,4.9,35,0.00,,---,0.00,VWS V14.01,2013-05-09 06:12:00,
2013-05-08 23:17:00,60.8,33.0,28.20,West,270,0.0,1.3,35,0.00,,---,0.00,VWS V14.01,2013-05-09 06:17:00,
2013-05-08 23:22:00,59.7,32.7,28.20,NNW,338,0.0,2.2,36,0.00,,---,0.00,VWS V14.01,2013-05-09 06:22:00,
2013-05-08 23:28:00,59.2,32.3,28.20,North,0,0.0,1.6,36,0.00,,---,0.00,VWS V14.01,2013-05-09 06:28:00,
2013-05-08 23:33:00,58.6,32.5,28.20,WNW,292,0.0,0.0,37,0.00,,---,0.00,VWS V14.01,2013-05-09 06:33:00,
2013-05-08 23:38:00,58.1,32.0,28.20,South,180,0.0,0.0,37,0.00,,---,0.00,VWS V14.01,2013-05-09 06:38:00,
2013-05-08 23:43:00,57.7,31.7,28.20,WSW,248,0.0,2.0,37,0.00,,---,0.00,VWS V14.01,2013-05-09 06:43:00,
2013-05-08 23:48:00,57.6,32.2,28.20,WSW,248,0.0,0.0,38,0.00,,---,0.00,VWS V14.01,2013-05-09 06:48:00,
2013-05-08 23:53:00,56.8,31.5,28.20,NE,45,0.0,0.0,38,0.00,,---,0.00,VWS V14.01,2013-05-09 06:53:00,
2013-05-08 23:58:00,56.7,32.0,28.20,SW,225,0.0,0.0,39,0.00,,---,0.00,VWS V14.01,2013-05-09 06:58:00,